Weather History for KBLM - September, 2012

Change the Weather History Date:

Monday, September 3, 2012

  Actual Average (KEWR) Record (KEWR)
Temperature  
Mean Temperature 72 °F 73 °F  
Max Temperature 75 °F 81 °F 100 °F (1993)
Min Temperature 69 °F 64 °F 51 °F (1967)
Degree Days  
Heating Degree Days 0 0  
Month to date heating degree days 0  
Since 1 July heating degree days 1  
Cooling Degree Days 7 8  
Month to date cooling degree days 24  
Year to date cooling degree days 1058  
Growing Degree Days 22 (Base 50)    
Moisture  
Dew Point 68 °F    
Average Humidity 83    
Maximum Humidity 94    
Minimum Humidity 69    
Precipitation  
Precipitation 0.10 in 0.12 in 2.96 in (1969)
Month to date precipitation 0.33  
Year to date precipitation 31.70  
Snow  
Snow 0.00 in 0.00 in 0.00 in (2002)
Month to date snowfall 0.0  
Since 1 July snowfall 0.0  
Snow Depth -    
Sea Level Pressure  
Sea Level Pressure 30.11 in    
Wind  
Wind Speed 8 mph (ESE)    
Max Wind Speed 15 mph    
Max Gust Speed 22 mph    
Visibility 10 miles    
Events      
T = Trace of Precipitation, MM = Missing Value Source: NWS Daily Summary

Daily Weather History Graph

Daily Weather History Graph

Search for Another Location

Airport or City:

Trip Planner

Search our weather history database for the weather conditions in past years. The results will help you decide how hot, cold, wet, or windy it might be!

Date:

Astronomy

Sep. 03, 2012 Rise Set
Actual Time 6:26 AM EDT 7:24 PM EDT
Civil Twilight 5:58 AM EDT 7:51 PM EDT
Nautical Twilight 5:25 AM EDT 8:24 PM EDT
Astronomical Twilight 4:51 AM EDT 8:58 PM EDT
Moon 8:41 PM EDT (9/3) 9:32 AM EDT (9/3)
Length of Visible Light 13h 53m
Length of Day
12h 57m
Waning Gibbous, 90% of the Moon is Illuminated
Sep 3
Waning Gibbous
Sep 8
Last Quarter
Sep 15
New
Sep 22
First Quarter
Sep 29
Full

Hourly Weather History & Observations

Time (EDT) Temp. Dew Point Humidity Pressure Visibility Wind Dir Wind Speed Gust Speed Precip Events Conditions
12:15 AM 73.4 °F 69.8 °F 88% 30.08 in 10.0 mi NE 3.5 mph - N/A   Overcast
12:35 AM 73.4 °F 71.6 °F 94% 30.08 in 10.0 mi NE 3.5 mph - N/A   Overcast
12:55 AM 73.4 °F 71.6 °F 94% 30.08 in 9.0 mi Calm Calm - N/A   Overcast
1:15 AM 73.4 °F 71.6 °F 94% 30.08 in 9.0 mi Calm Calm - N/A   Overcast
1:35 AM 73.4 °F 71.6 °F 94% 30.07 in 7.0 mi East 3.5 mph - N/A   Overcast
1:55 AM 73.4 °F 71.6 °F 94% 30.08 in 10.0 mi Calm Calm - N/A   Overcast
2:15 AM 73.4 °F 71.6 °F 94% 30.08 in 10.0 mi East 3.5 mph - N/A   Overcast
2:35 AM 73.4 °F 71.6 °F 94% 30.08 in 10.0 mi ENE 4.6 mph - N/A   Mostly Cloudy
2:55 AM 73.4 °F 71.6 °F 94% 30.08 in 10.0 mi ESE 5.8 mph - N/A   Overcast
3:15 AM 73.4 °F 71.6 °F 94% 30.08 in 10.0 mi East 4.6 mph - N/A   Overcast
3:35 AM 73.4 °F 71.6 °F 94% 30.08 in 10.0 mi ESE 4.6 mph - N/A   Overcast
3:55 AM 73.4 °F 71.6 °F 94% 30.08 in 10.0 mi East 5.8 mph - N/A   Overcast
4:15 AM 73.4 °F 71.6 °F 94% 30.08 in 10.0 mi ESE 4.6 mph - N/A   Overcast
4:35 AM 73.4 °F 71.6 °F 94% 30.08 in 10.0 mi East 4.6 mph - N/A   Mostly Cloudy
4:55 AM 73.4 °F 71.6 °F 94% 30.09 in 10.0 mi East 6.9 mph - N/A   Mostly Cloudy
5:15 AM 73.4 °F 71.6 °F 94% 30.09 in 10.0 mi East 8.1 mph - N/A   Overcast
5:35 AM 73.4 °F 69.8 °F 88% 30.09 in 10.0 mi ESE 8.1 mph - N/A   Overcast
5:55 AM 73.4 °F 69.8 °F 88% 30.10 in 10.0 mi ESE 10.4 mph - N/A   Overcast
6:15 AM 73.4 °F 69.8 °F 88% 30.10 in 10.0 mi ESE 10.4 mph 16.1 mph N/A   Overcast
6:35 AM 73.4 °F 69.8 °F 88% 30.11 in 10.0 mi ESE 8.1 mph - N/A   Overcast
6:55 AM 73.4 °F 69.8 °F 88% 30.11 in 10.0 mi ESE 8.1 mph - N/A   Mostly Cloudy
7:15 AM 73.4 °F 69.8 °F 88% 30.12 in 10.0 mi ESE 11.5 mph - N/A   Mostly Cloudy
7:35 AM 73.4 °F 69.8 °F 88% 30.12 in 10.0 mi ESE 12.7 mph 19.6 mph N/A   Overcast
7:55 AM 73.4 °F 69.8 °F 88% 30.13 in 9.0 mi East 11.5 mph 19.6 mph N/A   Mostly Cloudy
8:15 AM 73.4 °F 68.0 °F 83% 30.13 in 10.0 mi ESE 12.7 mph 18.4 mph N/A   Overcast
8:35 AM 73.4 °F 68.0 °F 83% 30.13 in 10.0 mi ESE 9.2 mph 17.3 mph N/A   Overcast
8:55 AM 73.4 °F 68.0 °F 83% 30.13 in 10.0 mi ESE 13.8 mph - N/A   Overcast
9:15 AM 73.4 °F 69.8 °F 88% 30.14 in 10.0 mi East 12.7 mph 17.3 mph N/A   Overcast
9:35 AM 75.2 °F 69.8 °F 83% 30.14 in 10.0 mi East 13.8 mph - N/A   Overcast
9:55 AM 73.4 °F 69.8 °F 88% 30.15 in 10.0 mi ESE 9.2 mph 18.4 mph N/A   Overcast
10:15 AM 75.2 °F 69.8 °F 83% 30.15 in 10.0 mi East 12.7 mph - N/A   Overcast
10:35 AM 75.2 °F 68.0 °F 78% 30.15 in 10.0 mi ESE 11.5 mph - N/A   Overcast
10:55 AM 75.2 °F 68.0 °F 78% 30.15 in 10.0 mi ESE 10.4 mph 18.4 mph N/A   Mostly Cloudy
11:15 AM 75.2 °F 68.0 °F 78% 30.15 in 10.0 mi East 15.0 mph - N/A   Mostly Cloudy
11:35 AM 75.2 °F 66.2 °F 73% 30.15 in 10.0 mi East 15.0 mph - N/A   Overcast
11:55 AM 75.2 °F 66.2 °F 73% 30.14 in 10.0 mi East 12.7 mph 17.3 mph N/A   Overcast
12:15 PM 75.2 °F 66.2 °F 73% 30.15 in 10.0 mi East 10.4 mph - N/A   Overcast
12:35 PM 75.2 °F 66.2 °F 73% 30.14 in 10.0 mi East 13.8 mph 19.6 mph N/A   Overcast
12:55 PM 75.2 °F 68.0 °F 78% 30.14 in 10.0 mi East 15.0 mph 20.7 mph N/A   Overcast
1:15 PM 75.2 °F 66.2 °F 73% 30.14 in 10.0 mi East 15.0 mph 20.7 mph N/A   Overcast
1:35 PM 75.2 °F 66.2 °F 73% 30.15 in 10.0 mi East 11.5 mph - N/A   Overcast
1:55 PM 75.2 °F 66.2 °F 73% 30.14 in 10.0 mi ESE 12.7 mph 21.9 mph N/A   Overcast
2:15 PM 75.2 °F 66.2 °F 73% 30.14 in 10.0 mi ESE 8.1 mph 17.3 mph N/A   Overcast
2:35 PM 75.2 °F 64.4 °F 69% 30.13 in 10.0 mi East 13.8 mph 17.3 mph N/A   Overcast
2:55 PM 73.4 °F 64.4 °F 73% 30.13 in 10.0 mi East 12.7 mph 17.3 mph N/A   Overcast
3:15 PM 73.4 °F 64.4 °F 73% 30.13 in 10.0 mi ESE 9.2 mph 16.1 mph N/A   Overcast
3:35 PM 73.4 °F 64.4 °F 73% 30.12 in 10.0 mi ESE 13.8 mph 17.3 mph N/A   Overcast
3:55 PM 73.4 °F 64.4 °F 73% 30.12 in 10.0 mi ESE 13.8 mph 20.7 mph N/A   Overcast
4:15 PM 73.4 °F 66.2 °F 78% 30.12 in 10.0 mi ESE 15.0 mph 20.7 mph N/A   Overcast
4:35 PM 73.4 °F 66.2 °F 78% 30.12 in 10.0 mi ESE 13.8 mph 19.6 mph N/A   Overcast
4:55 PM 71.6 °F 68.0 °F 88% 30.12 in 9.0 mi ESE 12.7 mph 16.1 mph N/A   Overcast
5:15 PM 71.6 °F 62.6 °F 73% 30.12 in 8.0 mi ESE 15.0 mph 19.6 mph N/A   Overcast
5:35 PM 69.8 °F 62.6 °F 78% 30.12 in 2.5 mi ESE 9.2 mph 17.3 mph 0.01 in   Overcast
5:55 PM 69.8 °F 64.4 °F 83% 30.12 in 4.0 mi ESE 12.7 mph - 0.02 in   Overcast
6:15 PM 69.8 °F 64.4 °F 83% 30.11 in 5.0 mi ESE 10.4 mph - 0.01 in   Overcast
6:35 PM 69.8 °F 64.4 °F 83% 30.11 in 6.0 mi ESE 8.1 mph - 0.01 in   Overcast
6:55 PM 69.8 °F 64.4 °F 83% 30.10 in 10.0 mi East 10.4 mph - 0.01 in   Overcast
7:15 PM 69.8 °F 64.4 °F 83% 30.10 in 10.0 mi East 10.4 mph 17.3 mph N/A   Overcast
7:35 PM 69.8 °F 64.4 °F 83% 30.10 in 10.0 mi East 9.2 mph - N/A   Overcast
7:55 PM 69.8 °F 64.4 °F 83% 30.09 in 10.0 mi East 13.8 mph - N/A   Overcast
8:15 PM 69.8 °F 64.4 °F 83% 30.09 in 10.0 mi East 15.0 mph 19.6 mph N/A   Overcast
8:35 PM 71.6 °F 64.4 °F 78% 30.09 in 10.0 mi East 10.4 mph - N/A   Overcast
8:55 PM 71.6 °F 64.4 °F 78% 30.10 in 10.0 mi East 11.5 mph - N/A   Overcast
9:15 PM 71.6 °F 64.4 °F 78% 30.10 in 10.0 mi East 10.4 mph - N/A   Overcast
9:35 PM 71.6 °F 64.4 °F 78% 30.10 in 10.0 mi ESE 10.4 mph - N/A   Overcast
9:55 PM 71.6 °F 64.4 °F 78% 30.09 in 10.0 mi East 8.1 mph - N/A   Overcast
10:15 PM 71.6 °F 64.4 °F 78% 30.09 in 10.0 mi East 8.1 mph - N/A   Overcast
10:35 PM 71.6 °F 64.4 °F 78% 30.10 in 10.0 mi East 8.1 mph - N/A   Overcast
10:55 PM 73.4 °F 66.2 °F 78% 30.09 in 10.0 mi ESE 8.1 mph - N/A   Overcast
11:15 PM 73.4 °F 66.2 °F 78% 30.09 in 10.0 mi ESE 6.9 mph - N/A   Overcast
11:35 PM 73.4 °F 66.2 °F 78% 30.08 in 10.0 mi ESE 10.4 mph - N/A   Overcast
11:55 PM 73.4 °F 68.0 °F 83% 30.08 in 8.0 mi SE 9.2 mph - 0.07 in   Overcast